STARLINK-32883, 62806

Orbit data source: Space-Track

STARLINK-32883, 62806 is a payload satellite owned by SpaceX/Seattle (US) in LEO that was launched on Fri, 24 Jan 2025 UTC via an FALCON 9 launch vehicle from the Air Force Western Test Range (AFWTR). Payload-class satellites include a variety of spacecraft equipped with specific instruments for various scientific and technological missions. These include communications satellites like Starlink; space stations such as the ISS; scientific satellites like the Hubble; Earth observation satellites from companies like Planet Labs, Umbra, and HawkEye 360; GPS; miniature CubeSats for education and research; and military/defense satellites.

Loading next visibility...
Identifier
62806, 2025-018A
Orbit
LEO
Country
Flag of USUS
Related business
Manufacturer
SpaceX/Seattle
Mission
Operational Commercial Communications
Bus & Motor
STARLINK V2M, Unknown motor
Mass
730 kg wet, ~700 kg dry
Launch date (UTC)
2025-01-24 (1 year ago)
Launch vehicle
FALCON 9
Launch site
Air Force Western Test Range (AFWTR)
Object type
Payload
Rocket body
Debris
Shape & HBR
Box + 2 Pan, 17.7 m
Radar Cross Section
33.884 m², Large (>1 m²)

Expand to show TLE details & history
Last TLE update: 9 hours ago

TLE from 9 hours ago
0 STARLINK-32883
1 62806U 25018A   26120.57613456  .00019620  00000-0  67266-3 0  9994
2 62806  53.1614  68.5037 0001287 103.9335 256.1809 15.30206968 72038
Epoch: 2026-04-30T13:49Z
TLE epoch observation values (Epoch: 2026-04-30T13:49:38.025Z)
Latitude
-0.00005°
Longitude
2.57447°
Altitude
476.305 km
Speed
7.629 km/s
True Right ascension
04h 34m 00s
True Declination
0° 00' 00"
Sunlit
Object was in daylight at epoch
Visualization orbit readout
Latitude
Unknown
Longitude
Unknown
Altitude
Unknown
Speed
Unknown
Apparent Right ascension
Unknown
Apparent Declination
Unknown
Sunlit
N/A
Visualization observer readout
Local Sidereal Time
06:37:37
Azimuth
Unknown
Elevation
Unknown
Doppler factor
Unknown
Orbital elements
Apogee altitude
476.333 km
Perigee altitude
474.568 km
Semi-major axis
6,853.587 km
Eccentricity
0.00013
Inclination
53.1614°
RAAN
68.5037°
Arg. of periapsis
103.9335°
True anomaly
256.16658°
Mean anomaly
256.1809°
Eccentric anomaly
256.17374°
Mean motion
3.82531 °/min
Orbital period
94.11 mins
BSTAR
0.00067266
Loading maneuver chart data...
Computing Atmospheric mass density...
Loading historical data...
Loading historical data...
Loading historical data...
Loading historical data...
Loading historical data...
Loading historical data...
Loading historical data...

Documentation

Showing up to 5 results
|